This is the latest recevied weather packets stored in our database for station/object KC2GYU. If no packets are shown the sender has not sent any weather packets the latest 1 day(s).
| Time | Temp. | Humidity | Pressure | Rain* | Wind** | Luminosity | Snow |
|---|---|---|---|---|---|---|---|
| 1778071185 | 18.33° C | 87% | 1012.5 hPa | 0 mm | - | 362 W/m² | - |
| 1778070883 | 18.33° C | 88% | 1012.7 hPa | 0 mm | - | 294 W/m² | - |
| 1778069369 | 17.22° C | 91% | 1012.5 hPa | 0 mm | - | 166 W/m² | - |
| 1778066949 | 16.11° C | 93% | 1012.4 hPa | 0 mm | - | 95 W/m² | - |
| 1778066647 | 15.56° C | 94% | 1012.3 hPa | 0 mm | - | 78 W/m² | - |
| 1778065739 | 15° C | 96% | 1012.6 hPa | 0 mm | - | 42 W/m² | - |
| 1778065436 | 14.44° C | 97% | 1012.5 hPa | 0 mm | - | 38 W/m² | - |
| 1778064829 | 14.44° C | 97% | 1012.6 hPa | 0 mm | - | 31 W/m² | - |
| 1778063922 | 13.89° C | 97% | 1012.4 hPa | 0 mm | - | 23 W/m² | - |
| 1778063014 | 13.89° C | 97% | 1012.6 hPa | 0 mm | - | 10 W/m² | - |
| 1778062407 | 13.89° C | 97% | 1012.2 hPa | 0 mm | - | 5 W/m² | - |
| 1778061198 | 13.89° C | 97% | 1012.2 hPa | 0 mm | - | 0 W/m² | - |
| 1778060895 | 13.89° C | 97% | 1012.3 hPa | 0 mm | - | 0 W/m² | - |
| 1778060594 | 13.89° C | 97% | 1012.4 hPa | 0 mm | - | 0 W/m² | - |
| 1778060292 | 13.89° C | 97% | 1012.4 hPa | 0 mm | - | 0 W/m² | - |
| 1778059988 | 13.89° C | 97% | 1012.3 hPa | 0 mm | - | 0 W/m² | - |
| 1778058476 | 13.89° C | 97% | 1012.4 hPa | 0 mm | - | 0 W/m² | - |
| 1778058173 | 13.89° C | 97% | 1012.4 hPa | 0 mm | - | 0 W/m² | - |
| 1778057566 | 13.89° C | 97% | 1012.6 hPa | 0 mm | - | 0 W/m² | - |
| 1778057262 | 13.89° C | 97% | 1012.5 hPa | 0 mm | - | 0 W/m² | - |
| 1778056656 | 13.89° C | 97% | 1012.7 hPa | 0 mm | - | 0 W/m² | - |
| 1778055746 | 13.89° C | 97% | 1012.7 hPa | 0 mm | - | 0 W/m² | - |
| 1778055444 | 14.44° C | 97% | 1012.6 hPa | 0 mm | - | 0 W/m² | - |
| 1778053628 | 14.44° C | 97% | 1012.7 hPa | 0 mm | - | 0 W/m² | - |
| 1778053325 | 14.44° C | 97% | 1012.4 hPa | 0 mm | - | 0 W/m² | - |
* Rain latest hour (hover to see other rain measurements)
** Current wind speed in m/s (hover to see current wind gust speed)